Time,TemperatureF,DewpointF,PressureIn,WindDirection,WindDirectionDegrees,WindSpeedMPH,WindSpeedGustMPH,Humidity,HourlyPrecipIn,Conditions,Clouds,dailyrainin,SoftwareType,DateUTC
2013-10-03 00:00:00,57.5,54.9,29.76,SSE,162,1.0,15.0,91,0.00,,,0.01,Wunderground v.1.15,2013-10-03 03:00:00,
2013-10-03 00:10:00,57.4,54.5,29.76,South,182,2.0,2.0,90,0.00,,,0.00,Wunderground v.1.15,2013-10-03 03:10:00,
2013-10-03 00:15:00,57.2,54.3,29.76,SSW,197,2.0,15.0,90,0.00,,,0.00,Wunderground v.1.15,2013-10-03 03:15:00,
2013-10-03 00:20:00,57.2,54.3,29.76,SE,143,1.0,1.0,90,0.00,,,0.00,Wunderground v.1.15,2013-10-03 03:20:00,
2013-10-03 00:25:00,57.0,54.1,29.76,South,191,1.0,2.0,90,0.00,,,0.00,Wunderground v.1.15,2013-10-03 03:25:00,
2013-10-03 00:30:00,56.8,54.2,29.76,SSW,202,1.0,15.0,91,0.00,,,0.00,Wunderground v.1.15,2013-10-03 03:30:00,
2013-10-03 00:40:00,56.7,54.4,29.76,SW,214,1.0,15.0,92,0.00,,,0.00,Wunderground v.1.15,2013-10-03 03:40:00,
2013-10-03 00:45:00,56.8,54.2,29.76,South,191,2.0,15.0,91,0.00,,,0.00,Wunderground v.1.15,2013-10-03 03:45:00,
2013-10-03 00:50:00,56.7,54.1,29.76,SSW,205,1.0,15.0,91,0.00,,,0.00,Wunderground v.1.15,2013-10-03 03:50:00,
2013-10-03 00:55:00,56.7,54.1,29.76,SSW,212,1.0,15.0,91,0.00,,,0.00,Wunderground v.1.15,2013-10-03 03:55:00,
2013-10-03 01:00:00,56.6,54.0,29.76,SW,224,2.0,2.0,91,0.00,,,0.00,Wunderground v.1.15,2013-10-03 04:00:00,
2013-10-03 01:05:00,56.5,53.9,29.77,SSW,204,1.0,15.0,91,0.00,,,0.00,Wunderground v.1.15,2013-10-03 04:05:00,
2013-10-03 01:10:00,56.6,53.7,29.77,SSW,210,1.0,15.0,90,0.00,,,0.00,Wunderground v.1.15,2013-10-03 04:10:00,
2013-10-03 01:15:00,56.7,53.5,29.77,South,171,1.0,15.0,89,0.00,,,0.00,Wunderground v.1.15,2013-10-03 04:15:00,
2013-10-03 01:20:00,56.8,53.3,29.77,SSW,195,1.0,1.0,88,0.00,,,0.00,Wunderground v.1.15,2013-10-03 04:20:00,
2013-10-03 01:25:00,56.6,52.8,29.77,SE,135,1.0,15.0,87,0.00,,,0.00,Wunderground v.1.15,2013-10-03 04:25:00,
2013-10-03 01:30:00,56.7,52.6,29.77,SSW,210,1.0,15.0,86,0.00,,,0.00,Wunderground v.1.15,2013-10-03 04:30:00,
2013-10-03 01:35:00,56.8,52.3,29.78,SSW,210,1.0,15.0,85,0.00,,,0.00,Wunderground v.1.15,2013-10-03 04:35:00,
2013-10-03 01:40:00,56.9,52.1,29.78,SSW,208,1.0,1.0,84,0.00,,,0.00,Wunderground v.1.15,2013-10-03 04:40:00,
2013-10-03 01:45:00,56.9,52.1,29.78,SSW,210,1.0,2.0,84,0.00,,,0.00,Wunderground v.1.15,2013-10-03 04:45:00,
2013-10-03 01:50:00,57.1,52.0,29.78,SSW,207,2.0,2.0,83,0.00,,,0.00,Wunderground v.1.15,2013-10-03 04:50:00,
2013-10-03 01:55:00,57.0,51.6,29.78,WSW,243,1.0,15.0,82,0.00,,,0.00,Wunderground v.1.15,2013-10-03 04:55:00,
2013-10-03 02:00:00,57.1,51.7,29.78,SW,214,1.0,15.0,82,0.00,,,0.00,Wunderground v.1.15,2013-10-03 05:00:00,
2013-10-03 02:05:00,57.2,51.4,29.78,SW,218,2.0,15.0,81,0.00,,,0.00,Wunderground v.1.15,2013-10-03 05:05:00,
2013-10-03 02:15:00,57.3,51.2,29.78,South,187,1.0,15.0,80,0.00,,,0.00,Wunderground v.1.15,2013-10-03 05:15:00,
2013-10-03 02:20:00,57.2,51.1,29.78,SSW,198,1.0,15.0,80,0.00,,,0.00,Wunderground v.1.15,2013-10-03 05:20:00,
2013-10-03 02:25:00,57.3,51.2,29.79,SSW,204,1.0,15.0,80,0.00,,,0.00,Wunderground v.1.15,2013-10-03 05:25:00,
2013-10-03 02:30:00,57.3,51.2,29.79,SW,217,1.0,15.0,80,0.00,,,0.00,Wunderground v.1.15,2013-10-03 05:30:00,
2013-10-03 02:35:00,57.4,50.9,29.79,SW,217,1.0,15.0,79,0.00,,,0.00,Wunderground v.1.15,2013-10-03 05:35:00,
2013-10-03 02:40:00,57.5,51.0,29.79,SSW,203,1.0,1.0,79,0.00,,,0.00,Wunderground v.1.15,2013-10-03 05:40:00,
2013-10-03 02:50:00,57.5,51.0,29.79,SSW,200,1.0,15.0,79,0.00,,,0.00,Wunderground v.1.15,2013-10-03 05:50:00,
2013-10-03 02:55:00,57.8,50.6,29.79,SW,217,1.0,15.0,77,0.00,,,0.00,Wunderground v.1.15,2013-10-03 05:55:00,
2013-10-03 03:00:00,58.2,50.7,29.79,ESE,112,1.0,15.0,76,0.00,,,0.00,Wunderground v.1.15,2013-10-03 06:00:00,
2013-10-03 03:05:00,58.9,50.3,29.79,SW,226,2.0,15.0,73,0.00,,,0.00,Wunderground v.1.15,2013-10-03 06:05:00,
2013-10-03 03:10:00,59.2,50.2,29.79,NW,308,2.0,2.0,72,0.00,,,0.00,Wunderground v.1.15,2013-10-03 06:10:00,
2013-10-03 03:20:00,59.3,50.3,29.79,NW,319,1.0,15.0,72,0.00,,,0.00,Wunderground v.1.15,2013-10-03 06:20:00,
2013-10-03 03:25:00,59.4,49.6,29.79,SSE,164,1.0,15.0,70,0.00,,,0.00,Wunderground v.1.15,2013-10-03 06:25:00,
2013-10-03 03:30:00,59.6,49.8,29.79,WSW,239,2.0,15.0,70,0.00,,,0.00,Wunderground v.1.15,2013-10-03 06:30:00,
2013-10-03 03:35:00,59.7,49.9,29.80,SW,222,2.0,15.0,70,0.00,,,0.00,Wunderground v.1.15,2013-10-03 06:35:00,
2013-10-03 03:40:00,59.6,49.8,29.79,SW,229,2.0,15.0,70,0.00,,,0.00,Wunderground v.1.15,2013-10-03 06:40:00,
2013-10-03 03:45:00,59.5,49.7,29.80,SW,214,2.0,15.0,70,0.00,,,0.00,Wunderground v.1.15,2013-10-03 06:45:00,
2013-10-03 03:55:00,59.1,49.3,29.80,South,181,2.0,15.0,70,0.00,,,0.00,Wunderground v.1.15,2013-10-03 06:55:00,
2013-10-03 04:00:00,58.7,49.3,29.81,ENE,61,1.0,15.0,71,0.00,,,0.00,Wunderground v.1.15,2013-10-03 07:00:00,
2013-10-03 04:05:00,58.3,49.3,29.81,SSE,161,1.0,15.0,72,0.00,,,0.00,Wunderground v.1.15,2013-10-03 07:05:00,
2013-10-03 04:10:00,58.0,49.0,29.81,SW,221,1.0,1.0,72,0.00,,,0.00,Wunderground v.1.15,2013-10-03 07:10:00,
2013-10-03 04:15:00,57.8,48.8,29.81,SSW,211,1.0,15.0,72,0.00,,,0.00,Wunderground v.1.15,2013-10-03 07:15:00,
2013-10-03 04:25:00,57.6,48.6,29.81,WSW,248,1.0,15.0,72,0.00,,,0.00,Wunderground v.1.15,2013-10-03 07:25:00,
2013-10-03 04:30:00,57.4,48.4,29.81,SW,233,1.0,15.0,72,0.00,,,0.00,Wunderground v.1.15,2013-10-03 07:30:00,
2013-10-03 04:35:00,57.2,48.6,29.81,WSW,252,1.0,15.0,73,0.00,,,0.00,Wunderground v.1.15,2013-10-03 07:35:00,
2013-10-03 04:40:00,57.2,48.3,29.81,SW,225,1.0,15.0,72,0.00,,,0.00,Wunderground v.1.15,2013-10-03 07:40:00,
2013-10-03 04:45:00,57.2,48.3,29.81,SW,236,2.0,15.0,72,0.00,,,0.00,Wunderground v.1.15,2013-10-03 07:45:00,
2013-10-03 04:50:00,57.2,48.3,29.81,WSW,243,2.0,2.0,72,0.00,,,0.00,Wunderground v.1.15,2013-10-03 07:50:00,
2013-10-03 04:55:00,57.2,47.9,29.81,SSW,205,2.0,15.0,71,0.00,,,0.00,Wunderground v.1.15,2013-10-03 07:55:00,
2013-10-03 05:00:00,57.2,47.9,29.82,SSW,212,2.0,2.0,71,0.00,,,0.00,Wunderground v.1.15,2013-10-03 08:00:00,
2013-10-03 05:05:00,57.1,47.8,29.82,SSW,203,2.0,15.0,71,0.00,,,0.00,Wunderground v.1.15,2013-10-03 08:05:00,
2013-10-03 05:10:00,56.8,47.9,29.82,NW,315,1.0,1.0,72,0.00,,,0.00,Wunderground v.1.15,2013-10-03 08:10:00,
2013-10-03 05:15:00,56.6,47.7,29.82,SW,226,1.0,15.0,72,0.00,,,0.00,Wunderground v.1.15,2013-10-03 08:15:00,
2013-10-03 05:20:00,56.4,47.9,29.83,SSW,210,1.0,15.0,73,0.00,,,0.00,Wunderground v.1.15,2013-10-03 08:20:00,
2013-10-03 05:30:00,56.3,47.4,29.83,West,273,1.0,15.0,72,0.00,,,0.00,Wunderground v.1.15,2013-10-03 08:30:00,
2013-10-03 05:35:00,56.3,47.4,29.83,NE,41,1.0,15.0,72,0.00,,,0.00,Wunderground v.1.15,2013-10-03 08:35:00,
2013-10-03 05:40:00,56.1,47.2,29.83,South,176,1.0,15.0,72,0.00,,,0.00,Wunderground v.1.15,2013-10-03 08:40:00,
2013-10-03 05:45:00,56.0,47.1,29.83,South,174,1.0,15.0,72,0.00,,,0.00,Wunderground v.1.15,2013-10-03 08:45:00,
2013-10-03 05:50:00,55.9,47.0,29.83,SW,214,1.0,15.0,72,0.00,,,0.00,Wunderground v.1.15,2013-10-03 08:50:00,
2013-10-03 06:00:00,55.6,46.7,29.84,SSE,153,1.0,15.0,72,0.00,,,0.00,Wunderground v.1.15,2013-10-03 09:00:00,
2013-10-03 06:05:00,55.7,46.8,29.84,North,9,2.0,15.0,72,0.00,,,0.00,Wunderground v.1.15,2013-10-03 09:05:00,
2013-10-03 06:10:00,55.7,46.8,29.84,SSW,207,1.0,1.0,72,0.00,,,0.00,Wunderground v.1.15,2013-10-03 09:10:00,
2013-10-03 06:15:00,55.7,46.8,29.84,West,277,1.0,15.0,72,0.00,,,0.00,Wunderground v.1.15,2013-10-03 09:15:00,
2013-10-03 06:20:00,55.7,46.8,29.84,West,275,1.0,15.0,72,0.00,,,0.00,Wunderground v.1.15,2013-10-03 09:20:00,
2013-10-03 06:25:00,55.7,46.8,29.84,SSW,204,2.0,15.0,72,0.00,,,0.00,Wunderground v.1.15,2013-10-03 09:25:00,
2013-10-03 06:35:00,55.5,47.0,29.85,SSW,212,2.0,15.0,73,0.00,,,0.00,Wunderground v.1.15,2013-10-03 09:35:00,
2013-10-03 06:40:00,55.5,47.0,29.85,SW,235,2.0,2.0,73,0.00,,,0.00,Wunderground v.1.15,2013-10-03 09:40:00,
2013-10-03 06:45:00,55.5,46.6,29.85,SSW,202,2.0,15.0,72,0.00,,,0.00,Wunderground v.1.15,2013-10-03 09:45:00,
2013-10-03 06:50:00,55.3,46.8,29.85,West,278,1.0,15.0,73,0.00,,,0.00,Wunderground v.1.15,2013-10-03 09:50:00,
2013-10-03 06:55:00,55.3,46.8,29.85,East,88,1.0,15.0,73,0.00,,,0.00,Wunderground v.1.15,2013-10-03 09:55:00,
2013-10-03 07:05:00,55.1,46.6,29.85,SW,224,1.0,15.0,73,0.00,,,0.00,Wunderground v.1.15,2013-10-03 10:05:00,
2013-10-03 07:10:00,55.1,46.6,29.85,SSW,204,1.0,15.0,73,0.00,,,0.00,Wunderground v.1.15,2013-10-03 10:10:00,
2013-10-03 07:15:00,54.9,46.8,29.86,SSW,204,1.0,15.0,74,0.00,,,0.00,Wunderground v.1.15,2013-10-03 10:15:00,
2013-10-03 07:20:00,54.9,46.8,29.85,SW,221,1.0,15.0,74,0.00,,,0.00,Wunderground v.1.15,2013-10-03 10:20:00,
2013-10-03 07:25:00,54.9,46.8,29.86,South,191,2.0,15.0,74,0.00,,,0.00,Wunderground v.1.15,2013-10-03 10:25:00,
2013-10-03 07:30:00,54.9,47.1,29.86,WSW,252,2.0,2.0,75,0.00,,,0.00,Wunderground v.1.15,2013-10-03 10:30:00,
2013-10-03 07:40:00,55.0,47.2,29.86,SW,214,2.0,15.0,75,0.00,,,0.00,Wunderground v.1.15,2013-10-03 10:40:00,
2013-10-03 07:45:00,55.1,47.3,29.87,SSW,202,3.0,15.0,75,0.00,,,0.00,Wunderground v.1.15,2013-10-03 10:45:00,
2013-10-03 07:50:00,55.3,47.5,29.87,West,269,2.0,15.0,75,0.00,,,0.00,Wunderground v.1.15,2013-10-03 10:50:00,
2013-10-03 07:55:00,55.4,47.6,29.87,NNE,26,2.0,15.0,75,0.00,,,0.00,Wunderground v.1.15,2013-10-03 10:55:00,
2013-10-03 08:00:00,55.5,47.7,29.88,SSW,200,1.0,15.0,75,0.00,,,0.00,Wunderground v.1.15,2013-10-03 11:00:00,
2013-10-03 08:10:00,56.8,48.2,29.88,SSE,167,2.0,15.0,73,0.00,,,0.00,Wunderground v.1.15,2013-10-03 11:10:00,
2013-10-03 08:15:00,57.3,48.3,29.88,SSW,206,2.0,15.0,72,0.00,,,0.00,Wunderground v.1.15,2013-10-03 11:15:00,
2013-10-03 08:20:00,57.7,48.4,29.88,WSW,243,2.0,2.0,71,0.00,,,0.00,Wunderground v.1.15,2013-10-03 11:20:00,
2013-10-03 08:25:00,58.1,49.1,29.88,SSW,200,2.0,15.0,72,0.00,,,0.00,Wunderground v.1.15,2013-10-03 11:25:00,
2013-10-03 08:30:00,58.6,49.2,29.88,SW,221,2.0,15.0,71,0.00,,,0.00,Wunderground v.1.15,2013-10-03 11:30:00,
2013-10-03 08:35:00,58.6,48.8,29.89,SW,235,2.0,15.0,70,0.00,,,0.00,Wunderground v.1.15,2013-10-03 11:35:00,
2013-10-03 08:40:00,59.0,49.2,29.89,WSW,255,3.0,15.0,70,0.00,,,0.00,Wunderground v.1.15,2013-10-03 11:40:00,
2013-10-03 08:45:00,59.4,49.2,29.89,WSW,253,2.0,15.0,69,0.00,,,0.00,Wunderground v.1.15,2013-10-03 11:45:00,
2013-10-03 08:50:00,59.7,49.1,29.89,WSW,239,2.0,15.0,68,0.00,,,0.00,Wunderground v.1.15,2013-10-03 11:50:00,
2013-10-03 08:55:00,59.9,48.9,29.90,WSW,255,3.0,15.0,67,0.00,,,0.00,Wunderground v.1.15,2013-10-03 11:55:00,
2013-10-03 09:00:00,60.1,49.1,29.89,SSW,195,3.0,3.0,67,0.00,,,0.00,Wunderground v.1.15,2013-10-03 12:00:00,
2013-10-03 09:05:00,60.2,49.6,29.89,ENE,60,3.0,15.0,68,0.00,,,0.00,Wunderground v.1.15,2013-10-03 12:05:00,
2013-10-03 09:15:00,60.5,49.1,29.90,WSW,252,3.0,5.0,66,0.00,,,0.00,Wunderground v.1.15,2013-10-03 12:15:00,
2013-10-03 09:20:00,60.6,48.8,29.89,SSW,200,3.0,15.0,65,0.00,,,0.00,Wunderground v.1.15,2013-10-03 12:20:00,
2013-10-03 09:25:00,60.8,49.0,29.90,WNW,295,3.0,15.0,65,0.00,,,0.00,Wunderground v.1.15,2013-10-03 12:25:00,
2013-10-03 09:30:00,61.1,49.7,29.90,NW,305,3.0,3.0,66,0.00,,,0.00,Wunderground v.1.15,2013-10-03 12:30:00,
2013-10-03 09:35:00,61.4,49.5,29.90,SW,229,2.0,15.0,65,0.00,,,0.00,Wunderground v.1.15,2013-10-03 12:35:00,
2013-10-03 09:45:00,62.0,49.7,29.90,WSW,250,2.0,15.0,64,0.00,,,0.00,Wunderground v.1.15,2013-10-03 12:45:00,
2013-10-03 09:50:00,61.9,48.7,29.90,West,276,2.0,2.0,62,0.00,,,0.00,Wunderground v.1.15,2013-10-03 12:50:00,
2013-10-03 09:55:00,61.8,49.1,29.91,SW,224,3.0,3.0,63,0.00,,,0.00,Wunderground v.1.15,2013-10-03 12:55:00,
2013-10-03 10:00:00,61.8,49.1,29.91,WSW,258,3.0,3.0,63,0.00,,,0.00,Wunderground v.1.15,2013-10-03 13:00:00,
2013-10-03 10:10:00,62.2,49.9,29.91,South,176,2.0,15.0,64,0.00,,,0.00,Wunderground v.1.15,2013-10-03 13:10:00,
2013-10-03 10:15:00,62.4,49.2,29.92,ESE,110,2.0,15.0,62,0.00,,,0.00,Wunderground v.1.15,2013-10-03 13:15:00,
2013-10-03 10:20:00,62.5,50.2,29.92,NW,308,2.0,2.0,64,0.00,,,0.00,Wunderground v.1.15,2013-10-03 13:20:00,
2013-10-03 10:25:00,62.8,50.0,29.92,West,277,2.0,15.0,63,0.00,,,0.00,Wunderground v.1.15,2013-10-03 13:25:00,
2013-10-03 10:30:00,62.9,49.7,29.92,SSW,212,2.0,15.0,62,0.00,,,0.00,Wunderground v.1.15,2013-10-03 13:30:00,
2013-10-03 10:35:00,62.7,50.3,29.92,SSW,200,2.0,15.0,64,0.00,,,0.00,Wunderground v.1.15,2013-10-03 13:35:00,
2013-10-03 10:40:00,62.8,49.6,29.92,West,266,2.0,15.0,62,0.00,,,0.00,Wunderground v.1.15,2013-10-03 13:40:00,
2013-10-03 10:50:00,62.7,49.5,29.92,WSW,252,3.0,3.0,62,0.00,,,0.00,Wunderground v.1.15,2013-10-03 13:50:00,
2013-10-03 10:55:00,63.0,50.2,29.92,WSW,239,3.0,9.0,63,0.00,,,0.00,Wunderground v.1.15,2013-10-03 13:55:00,
2013-10-03 11:00:00,62.8,49.1,29.92,NW,321,3.0,3.0,61,0.00,,,0.00,Wunderground v.1.15,2013-10-03 14:00:00,
2013-10-03 11:05:00,62.8,49.1,29.91,WSW,245,4.0,4.0,61,0.00,,,0.00,Wunderground v.1.15,2013-10-03 14:05:00,
2013-10-03 11:10:00,62.8,49.6,29.92,North,352,3.0,3.0,62,0.00,,,0.00,Wunderground v.1.15,2013-10-03 14:10:00,
2013-10-03 11:15:00,63.0,48.9,29.92,SSW,205,3.0,15.0,60,0.00,,,0.00,Wunderground v.1.15,2013-10-03 14:15:00,
2013-10-03 11:25:00,63.0,48.9,29.91,NW,326,3.0,15.0,60,0.00,,,0.00,Wunderground v.1.15,2013-10-03 14:25:00,
2013-10-03 11:30:00,62.9,50.1,29.91,WSW,242,3.0,3.0,63,0.00,,,0.00,Wunderground v.1.15,2013-10-03 14:30:00,
2013-10-03 11:35:00,62.9,48.8,29.92,WSW,256,3.0,4.0,60,0.00,,,0.00,Wunderground v.1.15,2013-10-03 14:35:00,
2013-10-03 11:40:00,62.8,48.7,29.91,North,350,4.0,15.0,60,0.00,,,0.00,Wunderground v.1.15,2013-10-03 14:40:00,
2013-10-03 11:45:00,63.0,48.9,29.92,WNW,287,3.0,15.0,60,0.00,,,0.00,Wunderground v.1.15,2013-10-03 14:45:00,
2013-10-03 11:55:00,63.3,48.7,29.92,WSW,255,3.0,15.0,59,0.00,,,0.00,Wunderground v.1.15,2013-10-03 14:55:00,
2013-10-03 12:00:00,63.2,48.2,29.92,West,262,3.0,3.0,58,0.00,,,0.00,Wunderground v.1.15,2013-10-03 15:00:00,
2013-10-03 12:05:00,63.2,49.1,29.92,WSW,249,3.0,4.0,60,0.00,,,0.00,Wunderground v.1.15,2013-10-03 15:05:00,
2013-10-03 12:10:00,63.5,48.9,29.92,WNW,294,3.0,15.0,59,0.00,,,0.00,Wunderground v.1.15,2013-10-03 15:10:00,
2013-10-03 12:15:00,63.4,48.4,29.92,NE,41,3.0,15.0,58,0.00,,,0.00,Wunderground v.1.15,2013-10-03 15:15:00,
2013-10-03 12:20:00,63.3,48.7,29.92,WSW,250,3.0,3.0,59,0.00,,,0.00,Wunderground v.1.15,2013-10-03 15:20:00,
2013-10-03 12:30:00,63.6,48.1,29.92,WNW,291,3.0,3.0,57,0.00,,,0.00,Wunderground v.1.15,2013-10-03 15:30:00,
2013-10-03 12:35:00,63.5,48.5,29.92,West,264,3.0,15.0,58,0.00,,,0.00,Wunderground v.1.15,2013-10-03 15:35:00,
2013-10-03 12:40:00,63.7,48.2,29.92,WNW,300,3.0,3.0,57,0.00,,,0.00,Wunderground v.1.15,2013-10-03 15:40:00,
2013-10-03 12:45:00,63.7,48.6,29.92,ENE,77,3.0,15.0,58,0.00,,,0.00,Wunderground v.1.15,2013-10-03 15:45:00,
2013-10-03 12:50:00,64.1,49.9,29.92,SSW,195,3.0,3.0,60,0.00,,,0.00,Wunderground v.1.15,2013-10-03 15:50:00,
2013-10-03 13:00:00,64.7,48.2,29.92,West,262,2.0,15.0,55,0.00,,,0.00,Wunderground v.1.15,2013-10-03 16:00:00,
2013-10-03 13:05:00,64.7,48.6,29.92,SW,224,3.0,15.0,56,0.00,,,0.00,Wunderground v.1.15,2013-10-03 16:05:00,
2013-10-03 13:10:00,64.9,49.8,29.92,South,190,2.0,2.0,58,0.00,,,0.00,Wunderground v.1.15,2013-10-03 16:10:00,
2013-10-03 13:15:00,65.2,48.6,29.92,NNW,338,2.0,15.0,55,0.00,,,0.00,Wunderground v.1.15,2013-10-03 16:15:00,
2013-10-03 13:20:00,65.3,50.6,29.91,SSW,211,2.0,2.0,59,0.00,,,0.00,Wunderground v.1.15,2013-10-03 16:20:00,
2013-10-03 13:25:00,65.7,49.6,29.91,West,271,2.0,15.0,56,0.00,,,0.00,Wunderground v.1.15,2013-10-03 16:25:00,
2013-10-03 13:30:00,65.4,49.8,29.91,ENE,63,2.0,2.0,57,0.00,,,0.00,Wunderground v.1.15,2013-10-03 16:30:00,
2013-10-03 13:40:00,65.2,49.6,29.91,West,274,3.0,3.0,57,0.00,,,0.00,Wunderground v.1.15,2013-10-03 16:40:00,
2013-10-03 13:45:00,65.2,50.0,29.91,SSW,207,3.0,15.0,58,0.00,,,0.00,Wunderground v.1.15,2013-10-03 16:45:00,
2013-10-03 13:50:00,65.6,50.9,29.92,WSW,243,2.0,15.0,59,0.00,,,0.00,Wunderground v.1.15,2013-10-03 16:50:00,
2013-10-03 13:55:00,65.0,49.9,29.92,WNW,284,2.0,15.0,58,0.00,,,0.00,Wunderground v.1.15,2013-10-03 16:55:00,
2013-10-03 14:00:00,64.3,49.2,29.91,West,274,2.0,2.0,58,0.00,,,0.00,Wunderground v.1.15,2013-10-03 17:00:00,
2013-10-03 14:05:00,64.3,49.2,29.91,West,281,2.0,15.0,58,0.00,,,0.00,Wunderground v.1.15,2013-10-03 17:05:00,
2013-10-03 14:10:00,64.1,49.5,29.91,SW,218,2.0,15.0,59,0.00,,,0.00,Wunderground v.1.15,2013-10-03 17:10:00,
2013-10-03 14:15:00,64.1,49.9,29.91,NNW,345,2.0,15.0,60,0.00,,,0.00,Wunderground v.1.15,2013-10-03 17:15:00,
2013-10-03 14:20:00,64.5,50.7,29.90,WSW,245,2.0,15.0,61,0.00,,,0.00,Wunderground v.1.15,2013-10-03 17:20:00,
2013-10-03 14:25:00,64.7,50.0,29.91,NE,38,2.0,15.0,59,0.00,,,0.00,Wunderground v.1.15,2013-10-03 17:25:00,
2013-10-03 14:35:00,65.7,51.4,29.91,NNE,32,2.0,15.0,60,0.00,,,0.00,Wunderground v.1.15,2013-10-03 17:35:00,
2013-10-03 14:40:00,66.0,50.8,29.91,SSW,204,3.0,15.0,58,0.00,,,0.00,Wunderground v.1.15,2013-10-03 17:40:00,
2013-10-03 14:45:00,65.8,52.0,29.91,East,91,2.0,15.0,61,0.00,,,0.00,Wunderground v.1.15,2013-10-03 17:45:00,
2013-10-03 14:50:00,64.9,50.7,29.91,WNW,283,2.0,2.0,60,0.00,,,0.00,Wunderground v.1.15,2013-10-03 17:50:00,
2013-10-03 14:55:00,64.8,50.1,29.91,NNE,15,2.0,15.0,59,0.00,,,0.00,Wunderground v.1.15,2013-10-03 17:55:00,
2013-10-03 15:00:00,65.0,49.9,29.91,NNE,26,2.0,15.0,58,0.00,,,0.00,Wunderground v.1.15,2013-10-03 18:00:00,
2013-10-03 15:10:00,65.3,50.1,29.91,NE,53,2.0,2.0,58,0.00,,,0.00,Wunderground v.1.15,2013-10-03 18:10:00,
2013-10-03 15:15:00,65.0,50.3,29.91,North,351,2.0,15.0,59,0.00,,,0.00,Wunderground v.1.15,2013-10-03 18:15:00,
2013-10-03 15:20:00,65.1,50.0,29.91,ENE,64,2.0,15.0,58,0.00,,,0.00,Wunderground v.1.15,2013-10-03 18:20:00,
2013-10-03 15:25:00,65.1,50.4,29.91,West,270,2.0,15.0,59,0.00,,,0.00,Wunderground v.1.15,2013-10-03 18:25:00,
2013-10-03 15:30:00,65.4,50.7,29.91,NNW,328,2.0,15.0,59,0.00,,,0.00,Wunderground v.1.15,2013-10-03 18:30:00,
2013-10-03 15:40:00,65.1,50.0,29.91,NW,305,2.0,2.0,58,0.00,,,0.00,Wunderground v.1.15,2013-10-03 18:40:00,
2013-10-03 15:45:00,65.1,50.0,29.91,WNW,285,2.0,15.0,58,0.00,,,0.00,Wunderground v.1.15,2013-10-03 18:45:00,
2013-10-03 15:50:00,65.3,51.5,29.91,WSW,243,1.0,15.0,61,0.00,,,0.00,Wunderground v.1.15,2013-10-03 18:50:00,
2013-10-03 15:55:00,65.5,50.3,29.91,North,1,1.0,15.0,58,0.00,,,0.00,Wunderground v.1.15,2013-10-03 18:55:00,
2013-10-03 16:00:00,65.2,50.5,29.91,NNW,340,2.0,15.0,59,0.00,,,0.00,Wunderground v.1.15,2013-10-03 19:00:00,
2013-10-03 16:05:00,64.9,50.7,29.91,SSE,155,2.0,15.0,60,0.00,,,0.00,Wunderground v.1.15,2013-10-03 19:05:00,
2013-10-03 16:15:00,63.9,50.2,29.91,NNW,335,2.0,15.0,61,0.00,,,0.00,Wunderground v.1.15,2013-10-03 19:15:00,
2013-10-03 16:20:00,63.8,50.5,29.91,WNW,298,1.0,15.0,62,0.00,,,0.00,Wunderground v.1.15,2013-10-03 19:20:00,
2013-10-03 16:25:00,64.7,51.8,29.91,East,86,1.0,15.0,63,0.00,,,0.00,Wunderground v.1.15,2013-10-03 19:25:00,
2013-10-03 16:30:00,65.2,51.8,29.91,NW,304,1.0,1.0,62,0.00,,,0.00,Wunderground v.1.15,2013-10-03 19:30:00,
2013-10-03 16:35:00,65.4,50.7,29.91,NW,316,2.0,2.0,59,0.00,,,0.00,Wunderground v.1.15,2013-10-03 19:35:00,
2013-10-03 16:45:00,64.4,51.1,29.92,WNW,284,1.0,15.0,62,0.00,,,0.00,Wunderground v.1.15,2013-10-03 19:45:00,
2013-10-03 16:50:00,63.9,51.5,29.92,WSW,248,1.0,15.0,64,0.00,,,0.00,Wunderground v.1.15,2013-10-03 19:50:00,
2013-10-03 16:55:00,64.2,52.2,29.92,South,169,1.0,15.0,65,0.00,,,0.00,Wunderground v.1.15,2013-10-03 19:55:00,
2013-10-03 17:00:00,64.5,51.6,29.92,NNW,335,1.0,15.0,63,0.00,,,0.00,Wunderground v.1.15,2013-10-03 20:00:00,
2013-10-03 17:05:00,64.4,51.5,29.92,SSW,205,1.0,15.0,63,0.00,,,0.00,Wunderground v.1.15,2013-10-03 20:05:00,
2013-10-03 17:10:00,64.3,51.4,29.93,NE,38,1.0,15.0,63,0.00,,,0.00,Wunderground v.1.15,2013-10-03 20:10:00,
2013-10-03 17:20:00,64.5,52.0,29.93,SW,229,1.0,1.0,64,0.00,,,0.00,Wunderground v.1.15,2013-10-03 20:20:00,
2013-10-03 17:25:00,64.7,51.4,29.93,ESE,119,1.0,15.0,62,0.00,,,0.00,Wunderground v.1.15,2013-10-03 20:25:00,
2013-10-03 17:30:00,64.6,51.7,29.93,North,353,1.0,1.0,63,0.00,,,0.00,Wunderground v.1.15,2013-10-03 20:30:00,
2013-10-03 17:35:00,64.7,52.2,29.93,SSW,201,1.0,15.0,64,0.00,,,0.00,Wunderground v.1.15,2013-10-03 20:35:00,
2013-10-03 17:40:00,64.7,52.2,29.93,WNW,294,1.0,15.0,64,0.00,,,0.00,Wunderground v.1.15,2013-10-03 20:40:00,
2013-10-03 17:50:00,63.8,52.2,29.94,SSW,194,1.0,15.0,66,0.00,,,0.00,Wunderground v.1.15,2013-10-03 20:50:00,
2013-10-03 17:55:00,63.6,50.3,29.94,NNE,32,1.0,15.0,62,0.00,,,0.00,Wunderground v.1.15,2013-10-03 20:55:00,
2013-10-03 18:00:00,63.3,48.3,29.94,West,270,1.0,15.0,58,0.00,,,0.00,Wunderground v.1.15,2013-10-03 21:00:00,
2013-10-03 18:05:00,62.6,48.1,29.94,WSW,256,2.0,15.0,59,0.00,,,0.00,Wunderground v.1.15,2013-10-03 21:05:00,
2013-10-03 18:10:00,62.0,48.0,29.94,SSW,204,2.0,15.0,60,0.00,,,0.00,Wunderground v.1.15,2013-10-03 21:10:00,
2013-10-03 18:15:00,61.6,47.6,29.94,SW,229,2.0,15.0,60,0.00,,,0.00,Wunderground v.1.15,2013-10-03 21:15:00,
2013-10-03 18:20:00,61.4,47.4,29.94,SW,229,3.0,15.0,60,0.00,,,0.00,Wunderground v.1.15,2013-10-03 21:20:00,
2013-10-03 18:25:00,61.1,47.1,29.95,West,263,2.0,15.0,60,0.00,,,0.00,Wunderground v.1.15,2013-10-03 21:25:00,
2013-10-03 18:30:00,60.8,47.3,29.94,SSW,205,2.0,15.0,61,0.00,,,0.00,Wunderground v.1.15,2013-10-03 21:30:00,
2013-10-03 18:35:00,60.5,47.0,29.94,WSW,243,2.0,15.0,61,0.00,,,0.00,Wunderground v.1.15,2013-10-03 21:35:00,
2013-10-03 18:40:00,60.1,47.0,29.94,NE,41,1.0,1.0,62,0.00,,,0.00,Wunderground v.1.15,2013-10-03 21:40:00,
2013-10-03 18:45:00,59.7,47.1,29.94,WNW,293,1.0,15.0,63,0.00,,,0.00,Wunderground v.1.15,2013-10-03 21:45:00,
2013-10-03 18:55:00,58.8,46.6,29.95,West,263,0.0,15.0,64,0.00,,,0.00,Wunderground v.1.15,2013-10-03 21:55:00,
2013-10-03 19:00:00,58.8,46.6,29.95,SW,215,1.0,15.0,64,0.00,,,0.00,Wunderground v.1.15,2013-10-03 22:00:00,
2013-10-03 19:05:00,58.7,47.0,29.95,West,269,1.0,15.0,65,0.00,,,0.00,Wunderground v.1.15,2013-10-03 22:05:00,
2013-10-03 19:10:00,58.5,46.8,29.95,South,181,1.0,15.0,65,0.00,,,0.00,Wunderground v.1.15,2013-10-03 22:10:00,
2013-10-03 19:15:00,58.3,46.6,29.95,SW,229,1.0,15.0,65,0.00,,,0.00,Wunderground v.1.15,2013-10-03 22:15:00,
2013-10-03 19:25:00,58.0,46.7,29.95,SSW,207,1.0,15.0,66,0.00,,,0.00,Wunderground v.1.15,2013-10-03 22:25:00,
2013-10-03 19:30:00,57.8,46.5,29.95,WSW,240,1.0,1.0,66,0.00,,,0.00,Wunderground v.1.15,2013-10-03 22:30:00,
2013-10-03 19:35:00,57.7,46.8,29.95,SW,219,1.0,15.0,67,0.00,,,0.00,Wunderground v.1.15,2013-10-03 22:35:00,
2013-10-03 19:40:00,57.5,46.6,29.96,WSW,255,1.0,15.0,67,0.00,,,0.00,Wunderground v.1.15,2013-10-03 22:40:00,
2013-10-03 19:45:00,57.4,46.5,29.96,South,190,1.0,15.0,67,0.00,,,0.00,Wunderground v.1.15,2013-10-03 22:45:00,
2013-10-03 19:50:00,57.2,46.7,29.96,SSW,195,1.0,1.0,68,0.00,,,0.00,Wunderground v.1.15,2013-10-03 22:50:00,
2013-10-03 20:00:00,56.5,46.4,29.96,SSW,202,1.0,1.0,69,0.00,,,0.00,Wunderground v.1.15,2013-10-03 23:00:00,
2013-10-03 20:05:00,55.9,46.3,29.96,SSW,201,0.0,15.0,70,0.00,,,0.00,Wunderground v.1.15,2013-10-03 23:05:00,
2013-10-03 20:10:00,55.3,46.1,29.97,SSW,201,0.0,15.0,71,0.00,,,0.00,Wunderground v.1.15,2013-10-03 23:10:00,
2013-10-03 20:15:00,54.8,45.9,29.97,WSW,238,0.0,15.0,72,0.00,,,0.00,Wunderground v.1.15,2013-10-03 23:15:00,
2013-10-03 20:20:00,54.4,45.9,29.97,SSW,207,0.0,15.0,73,0.00,,,0.00,Wunderground v.1.15,2013-10-03 23:20:00,
2013-10-03 20:30:00,53.8,46.1,29.97,SSW,207,0.0,15.0,75,0.00,,,0.00,Wunderground v.1.15,2013-10-03 23:30:00,
2013-10-03 20:35:00,53.7,46.0,29.97,SSW,209,0.0,15.0,75,0.00,,,0.00,Wunderground v.1.15,2013-10-03 23:35:00,
2013-10-03 20:40:00,53.4,45.7,29.97,SSW,195,0.0,15.0,75,0.00,,,0.00,Wunderground v.1.15,2013-10-03 23:40:00,
2013-10-03 20:45:00,53.0,45.6,29.97,SSW,203,0.0,15.0,76,0.00,,,0.00,Wunderground v.1.15,2013-10-03 23:45:00,
2013-10-03 20:50:00,52.6,45.6,29.97,SSW,203,0.0,15.0,77,0.00,,,0.00,Wunderground v.1.15,2013-10-03 23:50:00,
2013-10-03 20:55:00,52.4,45.7,29.97,SSW,210,0.0,15.0,78,0.00,,,0.00,Wunderground v.1.15,2013-10-03 23:55:00,
2013-10-03 21:05:00,52.2,45.9,29.98,SW,214,0.0,15.0,79,0.00,,,0.00,Wunderground v.1.15,2013-10-04 00:05:00,
2013-10-03 21:10:00,52.5,46.2,29.98,South,191,1.0,15.0,79,0.00,,,0.00,Wunderground v.1.15,2013-10-04 00:10:00,
2013-10-03 21:15:00,52.6,46.3,29.98,SW,214,1.0,15.0,79,0.00,,,0.00,Wunderground v.1.15,2013-10-04 00:15:00,
2013-10-03 21:20:00,52.7,46.4,29.98,SSW,193,1.0,15.0,79,0.00,,,0.00,Wunderground v.1.15,2013-10-04 00:20:00,
2013-10-03 21:25:00,52.8,46.5,29.98,SSW,208,1.0,15.0,79,0.00,,,0.00,Wunderground v.1.15,2013-10-04 00:25:00,
2013-10-03 21:30:00,52.9,46.6,29.98,SSW,194,1.0,1.0,79,0.00,,,0.00,Wunderground v.1.15,2013-10-04 00:30:00,
2013-10-03 21:35:00,53.0,46.3,29.99,SSW,194,1.0,15.0,78,0.00,,,0.00,Wunderground v.1.15,2013-10-04 00:35:00,
2013-10-03 21:40:00,52.9,46.2,29.99,SSW,195,0.0,15.0,78,0.00,,,0.00,Wunderground v.1.15,2013-10-04 00:40:00,
2013-10-03 21:45:00,52.8,46.1,29.99,SSW,204,0.0,15.0,78,0.00,,,0.00,Wunderground v.1.15,2013-10-04 00:45:00,
2013-10-03 21:50:00,52.8,46.5,30.00,SSW,195,0.0,15.0,79,0.00,,,0.00,Wunderground v.1.15,2013-10-04 00:50:00,
2013-10-03 21:55:00,52.8,46.1,30.00,SSW,205,0.0,15.0,78,0.00,,,0.00,Wunderground v.1.15,2013-10-04 00:55:00,
2013-10-03 22:05:00,52.6,46.3,30.00,SW,217,0.0,15.0,79,0.00,,,0.00,Wunderground v.1.15,2013-10-04 01:05:00,
2013-10-03 22:10:00,52.6,46.3,30.00,SSW,200,0.0,15.0,79,0.00,,,0.00,Wunderground v.1.15,2013-10-04 01:10:00,
2013-10-03 22:15:00,52.6,46.6,30.00,WSW,239,0.0,15.0,80,0.00,,,0.00,Wunderground v.1.15,2013-10-04 01:15:00,
2013-10-03 22:20:00,52.5,46.8,30.00,SW,215,0.0,15.0,81,0.00,,,0.00,Wunderground v.1.15,2013-10-04 01:20:00,
2013-10-03 22:25:00,52.2,46.5,30.00,SW,219,0.0,15.0,81,0.00,,,0.00,Wunderground v.1.15,2013-10-04 01:25:00,
2013-10-03 22:30:00,52.1,46.8,30.00,WSW,250,0.0,15.0,82,0.00,,,0.00,Wunderground v.1.15,2013-10-04 01:30:00,
2013-10-03 22:35:00,52.0,46.7,30.00,SW,233,0.0,15.0,82,0.00,,,0.00,Wunderground v.1.15,2013-10-04 01:35:00,
2013-10-03 22:40:00,51.9,46.9,30.00,WSW,243,0.0,15.0,83,0.00,,,0.00,Wunderground v.1.15,2013-10-04 01:40:00,
2013-10-03 22:45:00,51.9,47.2,30.00,SSW,194,0.0,15.0,84,0.00,,,0.00,Wunderground v.1.15,2013-10-04 01:45:00,
2013-10-03 22:50:00,51.8,47.1,30.00,SSW,193,0.0,15.0,84,0.00,,,0.00,Wunderground v.1.15,2013-10-04 01:50:00,
2013-10-03 22:55:00,51.7,47.0,30.00,SSW,198,0.0,15.0,84,0.00,,,0.00,Wunderground v.1.15,2013-10-04 01:55:00,
2013-10-03 23:05:00,51.7,47.3,30.01,SW,218,0.0,15.0,85,0.00,,,0.00,Wunderground v.1.15,2013-10-04 02:05:00,
2013-10-03 23:10:00,51.9,47.5,30.01,SW,236,1.0,15.0,85,0.00,,,0.00,Wunderground v.1.15,2013-10-04 02:10:00,
2013-10-03 23:15:00,52.1,47.4,30.01,SW,214,1.0,15.0,84,0.00,,,0.00,Wunderground v.1.15,2013-10-04 02:15:00,
2013-10-03 23:20:00,52.3,47.6,30.01,WSW,246,1.0,15.0,84,0.00,,,0.00,Wunderground v.1.15,2013-10-04 02:20:00,
2013-10-03 23:25:00,52.4,47.7,30.01,SW,214,1.0,15.0,84,0.00,,,0.00,Wunderground v.1.15,2013-10-04 02:25:00,
2013-10-03 23:30:00,52.2,47.5,30.01,South,172,0.0,15.0,84,0.00,,,0.00,Wunderground v.1.15,2013-10-04 02:30:00,
2013-10-03 23:35:00,51.9,47.2,30.01,South,190,0.0,15.0,84,0.00,,,0.00,Wunderground v.1.15,2013-10-04 02:35:00,
2013-10-03 23:45:00,51.2,46.5,30.01,SSW,212,0.0,15.0,84,0.00,,,0.00,Wunderground v.1.15,2013-10-04 02:45:00,
2013-10-03 23:50:00,50.7,46.4,30.01,SSW,213,0.0,15.0,85,0.00,,,0.00,Wunderground v.1.15,2013-10-04 02:50:00,
2013-10-03 23:55:00,50.4,46.4,30.01,SW,214,0.0,15.0,86,0.00,,,0.00,Wunderground v.1.15,2013-10-04 02:55:00,